Regional Weather Roundup
Issued by NWS

Home | Current Version | Previous Version | Text Only | Print | Product List | Glossary On
Versions: 1 2 3 4 5 6 7 8 9 10 11 12 13 14 15 16 17 18 19 20 21 22 23 24 25 26 27 28 29 30 31 32 33 34 35 36 37 38 39 40 41 42 43 44 45 46 47 48 49 50
000
ASUS44 KMEG 061010
RWRTN
TENNESSEE HOURLY STATE WEATHER ROUNDUP
NATIONAL WEATHER SERVICE MEMPHIS TN
400 AM CST TUE DEC 06 2016

TNZ002-004-019-021-049-052-054-088>092-061100-
WEST TENNESSEE

CITY           SKY/WX    TMP DP  RH WIND       PRES   REMARKS
MEMPHIS INTL   HVY RAIN  46  46 100 NW10      29.63R FOG
NWS MEMPHIS      N/A     45 N/A N/A MISG        N/A
JACKSON        RAIN      48  47  96 NW12      29.61S FOG
DYERSBURG      CLOUDY   N/A N/A N/A N8        29.62F
UNION CITY     CLOUDY    43  41  93 NW8       29.64S
PARIS          CLOUDY    41  41 100 N8        29.61F
LEXINGTON      CLOUDY    46  46 100 NW3       29.57F
$$

TNZ008-025-027-028-033-062-065-066-061100-
NORTH MIDDLE TENNESSEE

CITY           SKY/WX    TMP DP  RH WIND       PRES   REMARKS
NASHVILLE      RAIN      50  48  93 NE6       29.66R FOG
CLARKSVILLE    CLOUDY    46  44  93 E5        29.63F
SMYRNA         RAIN      53  52  96 NW6       29.67R
CROSSVILLE     HVY RAIN  51  50  96 S10G22    29.74F VSB 1
$$

TNZ061-075-076-078-094-096-097-061100-
SOUTH MIDDLE TENNESSEE

CITY           SKY/WX    TMP DP  RH WIND       PRES   REMARKS
TULLAHOMA      CLOUDY    52  52 100 CALM      29.69F
WINCHESTER     CLOUDY    54  52  94 NE8       29.67F
MCMINNVILLE    CLOUDY    55  55 100 CALM      29.71F
COLUMBIA       PTCLDY   N/A N/A N/A SE6       29.56F
SHELBYVILLE    CLOUDY    55  55 100 E9        29.68F
$$

TNZ017-018-042-046-047-061100-
NORTHEAST TENNESSEE

CITY           SKY/WX    TMP DP  RH WIND       PRES   REMARKS
TRI CITIES     RAIN      47  45  93 NE3       29.83F FOG
$$

TNZ012-013-036-069-073-074-061100-
CENTRAL EAST TENNESSEE

CITY           SKY/WX    TMP DP  RH WIND       PRES   REMARKS
KNOXVILLE      RAIN      49  47  93 E5        29.73F FOG
OAK RIDGE      HVY RAIN  49  47  93 CALM      29.75S FOG
GATLINBURG     CLOUDY    46  46 100 CALM      29.76F
$$

TNZ083-085-099-061100-
SOUTHEAST TENNESSEE

CITY           SKY/WX    TMP DP  RH WIND       PRES   REMARKS
CHATTANOOGA    LGT RAIN  51  49  92 CALM      29.71F
$$

SKY/WX REPORTED AS FAIR MEANS FEW OR NO CLOUDS BELOW
12 THOUSAND FEET.




USA.gov is the U.S. government's official web portal to all federal, state and local government web resources and services.